K7TUS-6 Weather Reports


Display with metric or nautical units.
time (UTC)temp
F
wind
direction
speed
MPH
gust
MPH
rain 1hr
in
rain 24hr
in
rain mn
in
humidity
%
barometer
mb
20260504012005 56 221 4.0 11.0 0.00 0.00 0.00 1 981.4
20260504011504 57 197 4.0 8.0 0.00 0.00 0.00 1 982.7
20260504011003 57 197 4.0 11.0 0.00 0.00 0.00 1 983.4
20260504010009 57 187 10.0 15.0 0.00 0.00 0.00 1 983.1
20260504005508 58 162 2.0 4.0 0.00 0.00 0.00 1 983.0
20260504005008 60 341 3.0 7.0 0.00 0.00 0.00 1 983.2
20260504004507 59 138 5.0 15.0 0.00 0.00 0.00 1 983.2
20260504004006 60 234 8.0 20.0 0.00 0.00 0.00 1 983.3
20260504003506 60 283 3.0 6.0 0.00 0.00 0.00 1 982.4
20260504002505 61 185 13.0 19.0 0.00 0.00 0.00 1 983.1
20260504002007 63 147 9.0 16.0 0.00 0.00 0.00 1 983.0
20260504001507 64 357 8.0 19.0 0.00 0.00 0.00 1 982.1
20260504001006 64 182 8.0 14.0 0.00 0.00 0.00 1 982.9
20260504000505 64 171 14.0 19.0 0.00 0.00 0.00 1 983.5
20260504000005 66 255 3.0 8.0 0.00 0.00 0.00 1 982.8
20260503235504 67 174 2.0 6.0 0.00 0.00 0.00 1 983.7
20260503235003 68 303 3.0 6.0 0.00 0.00 0.00 1 984.0
20260503234503 69 164 3.0 7.0 0.00 0.00 0.00 1 984.0
20260503234008 69 174 3.0 6.0 0.00 0.00 0.00 1 984.0
20260503233507 69 188 2.0 5.0 0.00 0.00 0.00 1 984.0
20260503233007 69 8 2.0 5.0 0.00 0.00 0.00 1 983.1
20260503232506 69 103 3.0 5.0 0.00 0.00 0.00 1 982.8
20260503231505 67 182 3.0 7.0 0.00 0.00 0.00 1 984.2
20260503231005 67 171 6.0 13.0 0.00 0.00 0.00 1 984.3
20260503230504 68 274 2.0 6.0 0.00 0.00 0.00 1 984.3
20260503230004 67 279 2.0 5.0 0.00 0.00 0.00 1 984.4
20260503225503 68 143 1.0 3.0 0.00 0.00 0.00 100 984.5
20260503225009 67 326 2.0 4.0 0.00 0.00 0.00 2 984.5
20260503224508 67 200 7.0 11.0 0.00 0.00 0.00 100 984.0
20260503224007 69 27 2.0 6.0 0.00 0.00 0.00 3 984.7
20260503223506 69 228 2.0 3.0 0.00 0.00 0.00 3 984.3
20260503223006 68 203 4.0 8.0 0.00 0.00 0.00 3 984.0
20260503222505 68 6 2.0 5.0 0.00 0.00 0.00 5 983.5
20260503222005 66 249 2.0 3.0 0.00 0.00 0.00 6 984.9
20260503221504 67 353 2.0 3.0 0.00 0.00 0.00 7 984.7
20260503221004 65 134 3.0 6.0 0.00 0.00 0.00 8 984.2
20260503220503 64 47 3.0 5.0 0.00 0.00 0.00 10 984.6
20260503220009 63 5 2.0 5.0 0.00 0.00 0.00 12 984.2
20260503215508 62 334 3.0 6.0 0.00 0.00 0.00 12 984.9
20260503215007 60 221 2.0 4.0 0.00 0.00 0.00 13 984.4
20260503214507 59 34 2.0 5.0 0.00 0.00 0.00 14 984.0
20260503214006 59 358 4.0 6.0 0.00 0.00 0.00 13 984.2
20260503213505 60 327 3.0 6.0 0.00 0.00 0.00 12 983.8
20260503213005 59 305 4.0 7.0 0.00 0.00 0.00 11 984.3
20260503212504 60 171 4.0 8.0 0.00 0.00 0.00 11 984.6
20260503212004 60 145 6.0 9.0 0.00 0.00 0.00 10 984.7
20260503211503 61 128 5.0 11.0 0.00 0.00 0.00 10 984.7
20260503211009 62 80 6.0 9.0 0.00 0.00 0.00 8 985.5
20260503210008 61 183 8.0 16.0 0.00 0.00 0.00 7 985.2
20260503205507 62 172 2.0 4.0 0.00 0.00 0.00 10 985.3
20260503205007 62 179 2.0 6.0 0.00 0.00 0.00 10 985.0
20260503204506 60 255 6.0 11.0 0.00 0.00 0.00 7 985.4
20260503204005 61 186 2.0 5.0 0.00 0.00 0.00 9 986.0
20260503203004 60 165 6.0 8.0 0.00 0.00 0.00 8 986.4
20260503202504 60 206 4.0 7.0 0.00 0.00 0.00 8 984.3
20260503202003 61 84 5.0 10.0 0.00 0.00 0.00 10 985.4
20260503201509 60 325 3.0 5.0 0.00 0.00 0.00 11 985.0
20260503201008 60 124 3.0 6.0 0.00 0.00 0.00 11 985.3
20260503200507 60 7 3.0 6.0 0.00 0.00 0.00 10 985.3
20260503200007 60 18 4.0 6.0 0.00 0.00 0.00 11 985.7
20260503195506 59 86 3.0 6.0 0.00 0.00 0.00 9 985.2
20260503195006 61 92 2.0 4.0 0.00 0.00 0.00 9 984.8
20260503194005 61 291 3.0 10.0 0.00 0.00 0.00 10 985.6
20260503193504 61 280 1.0 1.0 0.00 0.00 0.00 9 984.4
20260503193004 60 178 3.0 8.0 0.00 0.00 0.00 9 985.1
20260503192503 60 167 3.0 8.0 0.00 0.00 0.00 10 983.8
20260503192002 60 290 2.0 5.0 0.00 0.00 0.00 10 984.0
20260503191008 61 157 5.0 8.0 0.00 0.00 0.00 10 985.6
20260503190507 61 98 5.0 15.0 0.00 0.00 0.00 10 985.2
20260503190006 61 48 5.0 13.0 0.00 0.00 0.00 10 985.5
20260503185506 62 87 3.0 8.0 0.00 0.00 0.00 11 986.3
20260503185005 62 270 3.0 9.0 0.00 0.00 0.00 11 985.8
20260503184504 62 4 5.0 8.0 0.00 0.00 0.00 10 986.5
20260503184004 61 202 4.0 13.0 0.00 0.00 0.00 10 986.9
20260503183503 62 204 4.0 8.0 0.00 0.00 0.00 11 984.8
20260503183009 62 339 3.0 5.0 0.00 0.00 0.00 11 986.0
20260503182508 61 237 2.0 6.0 0.00 0.00 0.00 10 987.0
20260503182007 62 91 2.0 5.0 0.00 0.00 0.00 11 986.4
20260503181507 62 274 2.0 6.0 0.00 0.00 0.00 11 986.2
20260503181006 62 353 2.0 4.0 0.00 0.00 0.00 9 986.3
20260503180505 63 168 3.0 6.0 0.00 0.00 0.00 8 986.8
20260503180005 64 30 2.0 5.0 0.00 0.00 0.00 9 986.2
20260503175004 62 158 2.0 4.0 0.00 0.00 0.00 10 985.9
20260503174503 63 195 3.0 7.0 0.00 0.00 0.00 10 986.6
20260503174003 63 188 2.0 5.0 0.00 0.00 0.00 8 986.7
20260503173508 64 271 3.0 5.0 0.00 0.00 0.00 9 987.7
20260503173008 64 115 3.0 6.0 0.00 0.00 0.00 8 986.6
20260503172507 64 334 2.0 3.0 0.00 0.00 0.00 10 987.0
20260503171506 62 181 7.0 11.0 0.00 0.00 0.00 8 987.8
20260503171006 65 45 2.0 4.0 0.00 0.00 0.00 8 987.1
20260503170505 64 185 2.0 6.0 0.00 0.00 0.00 10 987.0
20260503150507 57 156 6.0 9.0 0.00 0.00 0.00 13 985.7
20260503131006 53 130 1.0 1.0 0.00 0.00 0.00 19 984.8
20260503130506 53 109 1.0 1.0 0.00 0.00 0.00 20 985.3
20260503110504 52 205 5.0 10.0 0.00 0.00 0.00 21 984.5
20260503090508 51 294 1.0 3.0 0.00 0.00 0.00 20 984.9
20260503081508 52 182 6.0 6.0 0.00 0.00 0.00 17 986.4
20260503081008 52 190 3.0 3.0 0.00 0.00 0.00 18 986.3
20260503080507 52 190 3.0 3.0 0.00 0.00 0.00 18 986.3
20260503072509 52 159 6.0 8.0 0.00 0.00 0.00 15 985.8
20260503072008 53 171 3.0 6.0 0.00 0.00 0.00 16 985.2
20260503071007 53 150 5.0 6.0 0.00 0.00 0.00 18 985.3
20260503070507 53 179 6.0 8.0 0.00 0.00 0.00 18 985.0
20260503054505 52 158 6.0 10.0 0.00 0.00 0.00 19 985.9
20260503054005 52 146 5.0 7.0 0.00 0.00 0.00 19 985.9
20260503053504 52 147 5.0 7.0 0.00 0.00 0.00 19 985.4
20260503052503 52 156 8.0 11.0 0.00 0.00 0.00 19 986.2
20260503052009 52 144 6.0 7.0 0.00 0.00 0.00 19 986.7
20260503051508 52 157 6.0 8.0 0.00 0.00 0.00 19 986.4
20260503051008 52 155 6.0 7.0 0.00 0.00 0.00 18 986.6
20260503050507 52 140 4.0 7.0 0.00 0.00 0.00 19 986.1
20260503045507 52 155 4.0 6.0 0.00 0.00 0.00 18 986.0
20260503045006 52 145 4.0 6.0 0.00 0.00 0.00 18 986.0
20260503044506 52 134 4.0 6.0 0.00 0.00 0.00 18 985.9
20260503044005 52 104 5.0 8.0 0.00 0.00 0.00 19 985.8
20260503043505 52 150 4.0 6.0 0.00 0.00 0.00 18 985.4
20260503043004 51 137 6.0 8.0 0.00 0.00 0.00 18 985.8
20260503042503 52 137 5.0 7.0 0.00 0.00 0.00 18 985.4
20260503042009 52 148 6.0 7.0 0.00 0.00 0.00 18 986.1
20260503041509 52 137 4.0 6.0 0.00 0.00 0.00 18 985.6
20260503041008 52 145 5.0 8.0 0.00 0.00 0.00 18 986.1
20260503040507 53 140 3.0 6.0 0.00 0.00 0.00 17 985.4
20260503040007 53 133 3.0 5.0 0.00 0.00 0.00 17 984.9
20260503035506 52 121 3.0 6.0 0.00 0.00 0.00 17 985.0
20260503035006 53 131 3.0 7.0 0.00 0.00 0.00 16 985.4
20260503034505 53 136 3.0 5.0 0.00 0.00 0.00 17 985.3
20260503034005 53 143 5.0 9.0 0.00 0.00 0.00 16 984.7
20260503033503 53 140 5.0 8.0 0.00 0.00 0.00 16 985.2
20260503033009 53 159 3.0 8.0 0.00 0.00 0.00 17 985.3
20260503032508 53 135 4.0 7.0 0.00 0.00 0.00 16 985.6
20260503032007 53 146 5.0 5.0 0.00 0.00 0.00 15 985.5
20260503031507 53 133 4.0 7.0 0.00 0.00 0.00 14 984.9
20260503031007 54 155 5.0 7.0 0.00 0.00 0.00 13 984.3
20260503030506 54 135 4.0 6.0 0.00 0.00 0.00 14 984.1
20260503030005 54 149 4.0 6.0 0.00 0.00 0.00 14 984.5
20260503025505 54 146 3.0 6.0 0.00 0.00 0.00 12 983.8
20260503025004 55 84 2.0 3.0 0.00 0.00 0.00 13 984.6
20260503024504 55 132 3.0 5.0 0.00 0.00 0.00 13 984.9
20260503024009 55 147 4.0 6.0 0.00 0.00 0.00 12 984.6
20260503023508 55 117 5.0 6.0 0.00 0.00 0.00 11 984.4
20260503023007 56 108 4.0 7.0 0.00 0.00 0.00 10 984.4
20260503022006 56 76 3.0 4.0 0.00 0.00 0.00 9 985.0
20260503021506 57 91 3.0 5.0 0.00 0.00 0.00 8 985.0
20260503021005 57 99 2.0 3.0 0.00 0.00 0.00 8 985.2
20260503020006 58 95 2.0 3.0 0.00 0.00 0.00 6 986.0
20260503015505 58 107 2.0 3.0 0.00 0.00 0.00 6 985.3
20260503015005 58 105 4.0 6.0 0.00 0.00 0.00 6 985.8
20260503014504 58 120 3.0 5.0 0.00 0.00 0.00 7 984.7
20260503014004 58 101 4.0 5.0 0.00 0.00 0.00 6 985.0
20260503013503 58 97 3.0 4.0 0.00 0.00 0.00 7 984.6
20260503013009 58 111 3.0 4.0 0.00 0.00 0.00 6 984.9
20260503012508 59 131 3.0 4.0 0.00 0.00 0.00 6 984.2